Tracking 26894 objects as of 2-Feb-2023
HD Live streaming from Space Station
objects crossing your sky now

SL-12 DEB

Track SL-12 DEB now!
10-day predictions


NORAD ID: 45035
Int'l Code: 2009-070N
Perigee: 333.5 km
Apogee: 8,795.3 km
Inclination: 64.3 °
Period: 189.7 minutes
Semi major axis: 10935 km
RCS: Unknown
Launch date: December 14, 2009
Source: Commonwealth of Independent States (former USSR) (CIS)
Launch site: TYURATAM MISSILE AND SPACE COMPLEX (TTMTR)

Note: This is SATELLITE DEBRIS
Your satellite tracking list
Your tracking list is empty




NASA's NSSDC Master Catalog

Two Line Element Set (TLE):
1 45035U 09070N   23032.49142984  .00355536  00000-0  48783-1 0  9992
2 45035  64.2840 198.3902 3868995 345.2858   6.0708  7.59188659 56255
Source of the keplerian elements: AFSPC